Flag for Canada Weather past 2 weeks in Ottawa, Ontario, Canada

Now
55 °F

Mostly cloudy.


Feels Like: 53 °F
Forecast: 44 / 57 °F
Wind: 8 mph from West

Location: Ottawa Int'L. Ont.

Current Time: Sep 17, 2014 at 11:37:01 PM

Latest Report: Sep 17, 2014 at 11:03 PM


Visibility: 8 mi

Pressure: 29.92 "Hg

Humidity: 94%

Dew point: 54 °F

Location of OttawaLocation

Historic Weather in Ottawa — Graph

°F

Ottawa temperature yesterday

Maximum temperature yesterday: 64 °F (at 4:00 PM)
Minimum temperature yesterday: 48 °F (at 6:00 AM)
Average temperature yesterday: 55 °F

Past Weeks' High & Low Weather Summary

 TemperatureHumidityPressure
High82 °F (Sep 5, 1:00 PM)100% (Sep 2, 10:00 PM)30.37 "Hg (Sep 2, 10:00 PM)
Low39 °F (Sep 17, 7:00 AM)39% (Sep 3, 5:00 PM)29.49 "Hg (Sep 11, 8:00 AM)
Average60 °F79%30.05 "Hg
* Reported Sep 2 10:00 PM — Sep 17 10:00 PM, Ottawa, Weather by CustomWeather, © 2014

Note: Actual official high and low records may vary slightly from our data, if they occured in-between our weather recording intervals... More about our weather records

Advertising

Ottawa weather history for previous 24 hours

 ConditionsComfort  
Time TempWeatherWind HumidityBarometerVisibility
10:00 PM
Sep 17
54 °FLight rain. Overcast.3 mph100%29.91 "Hg8 mi
9:00 PM55 °FLight rain. Mostly cloudy.5 mph94%29.91 "Hg8 mi
8:53 PM55 °FLight rain. Overcast.7 mph94%29.92 "Hg8 mi
8:00 PM57 °FLight rain. Overcast.5 mph94%29.90 "Hg8 mi
7:00 PM57 °FSprinkles. Mostly cloudy.12 mph88%29.90 "Hg15 mi
6:00 PM63 °FOvercast.9 mph64%29.88 "Hg15 mi
5:00 PM64 °FBroken clouds.9 mph56%29.89 "Hg15 mi
4:00 PM63 °FPartly sunny.10 mph59%29.90 "Hg15 mi
3:00 PM63 °FBroken clouds.9 mph64%29.91 "Hg15 mi
2:00 PM63 °FBroken clouds.14 mph64%29.93 "Hg15 mi
1:00 PM61 °FPartly sunny.8 mph68%29.96 "Hg15 mi
12:00 PM57 °FPartly sunny.5 mph77%29.97 "Hg15 mi
11:00 AM52 °FPartly sunny.5 mph88%30.00 "Hg15 mi
10:00 AM50 °FPartly sunny.5 mph88%30.00 "Hg15 mi
9:00 AM48 °FPartly sunny.6 mph94%29.99 "Hg15 mi
8:00 AM45 °FPartly sunny.5 mph93%30.00 "Hg15 mi
7:00 AM39 °FPassing clouds.2 mph100%29.99 "Hg15 mi
6:00 AM41 °FPassing clouds.7 mph100%29.97 "Hg15 mi
5:00 AM43 °FClear.6 mph93%29.97 "Hg15 mi
4:00 AM43 °FClear.7 mph93%29.97 "Hg15 mi
3:00 AM43 °FClear.7 mph93%29.98 "Hg15 mi
2:00 AM45 °FClear.7 mph93%29.98 "Hg15 mi
1:00 AM45 °FClear.6 mph93%29.98 "Hg15 mi
12:00 AM48 °FClear.5 mph82%29.98 "Hg15 mi
11:00 PM
Sep 16
48 °FClear.8 mph82%29.97 "Hg15 mi
Weather by CustomWeather, © 2014

See weather overviewHow to use our weather pages